Content
SEND FEEDBACK

Daily
Averages
Monthly
Summary
United States of America

BEARDSLEY, MINNESOTA


Home > North America > United States > Minnesota
Elevation: 1090 feet     Latitude: 45 33N     Longitude: 096 42W

WEATHER
 
SELECT A DAY
Number of Records: 138,047;   Date Range: 8/27/98 - 10/18/14
 
SHARE

PRINT THIS DATA

[ ← Previous Day ]
WEATHER ALMANAC - JANUARY 31, 2013
[ Next Day → ]
[ °C ]   °F
Weather ElementAverageHighLow
Temperature-11.6 °F-8 °F (1:56 pm)-16.1 °F (11:56 pm)
Dewpoint-18.8 °F-16.1 °F (1:56 am)-23.1 °F (11:56 pm)
Humidity70.6 %75 % (3:56 am)65 % (3:56 pm)
Barometer30.37 in30.50 in (8:56 pm)30.11 in (1:56 am)
Wind Speed18.4 mph27.6 mph (11:56 am)
Wind Gust36.8 mph (10:56 am)
Weather ElementAverage
Wind DirectionNNW (327 °)

Weather ElementTotal
Precipitation---
Heating Degree Days77.1 (Base 65)
Averaged from 23 records on January 31, 2013
WEATHER CONDITIONS BREAKOUT
WIND DIRECTION BREAKOUT
WEATHER BY HOUR - JANUARY 31, 2013
[ °C ]   °F
Local TimeTemperatureDewpointHumidityBarometerVisibilityWind DirectionWind SpeedGust SpeedPrecipitationEventsConditions
1:56 AM-9.9 °F-16.1 °F74 %30.11 inNNW (340°)21.9 mph
2:56 AM-11.9 °F-18.0 °F74 %30.13 inNNW (330°)17.3 mph
3:56 AM-13.0 °F-18.9 °F75 %30.15 inNNW (330°)18.4 mph
4:56 AM-13.0 °F-20.0 °F71 %30.18 inNNW (330°)24.2 mph
5:56 AM-14.1 °F-20.0 °F75 %30.22 inNNW (330°)23.0 mph
6:56 AM-14.1 °F-20.9 °F71 %30.26 inNNW (330°)20.7 mph
7:56 AM-13.0 °F-20.0 °F71 %30.29 inNNW (330°)25.3 mph32.2 mph
8:56 AM-13.0 °F-18.9 °F75 %30.34 inNNW (330°)25.3 mph31.1 mph
9:56 AM-11.9 °F-18.9 °F71 %30.37 inNNW (340°)25.3 mph32.2 mph
10:56 AM-11.0 °F-18.0 °F71 %30.39 inNNW (340°)26.5 mph36.8 mph
11:56 AM-9.9 °F-17.0 °F71 %30.40 inNNW (340°)27.6 mph
12:56 PM-9.0 °F-17.0 °F68 %30.42 inNNW (340°)24.2 mph
1:56 PM-8.0 °F-16.1 °F68 %30.43 inNNW (330°)19.6 mph27.6 mph
2:56 PM-8.0 °F-16.1 °F68 %30.44 inNW (320°)16.1 mph
3:56 PM-8.0 °F-17.0 °F65 %30.47 inNNW (330°)20.7 mph
4:56 PM-9.0 °F-17.0 °F68 %30.47 inNNW (330°)16.1 mph
5:56 PM-11.0 °F-18.9 °F68 %30.48 inNW (320°)10.4 mph
6:56 PM-11.9 °F-18.9 °F71 %30.49 inNW (320°)10.4 mph
7:56 PM-13.0 °F-20.0 °F71 %30.49 inNW (310°)11.5 mph
8:56 PM-13.0 °F-20.0 °F71 %30.50 inNW (310°)12.7 mph
9:56 PM-13.0 °F-20.9 °F68 %30.50 inNW (310°)9.2 mph
10:56 PM-13.0 °F-20.9 °F68 %30.48 inNW (320°)10.4 mph
11:56 PM-16.1 °F-23.1 °F71 %30.48 inNW (310°)5.8 mph
Hourly data recorded from K8D3, located miles away from Beardsley, Minnesota







STORIES FROM OUR PARTNERS